Content
SEND FEEDBACK

Daily
Averages
Monthly
Summary
United States of America

BROOKLYN, NEW YORK


Home > North America > United States > New York
Elevation: 2 feet     Latitude: 40 36N     Longitude: 073 59W

WEATHER
 
SELECT A DAY
Number of Records: 188,160;   Date Range: 1/1/95 - 10/22/14
 
SHARE

PRINT THIS DATA

[ ← Previous Day ]
WEATHER ALMANAC - JANUARY 10, 2013
[ Next Day → ]
[ °C ]   °F
Weather ElementAverageHighLow
Temperature43.6 °F48.9 °F (1:51 pm)39 °F (10:51 pm)
Dewpoint22.6 °F30 °F (1:51 am)19.9 °F (12:51 pm)
Humidity44.2 %62 % (1:51 am)32 % (1:51 pm)
Barometer30.47 in30.56 in (11:51 pm)30.30 in (1:51 am)
Wind Speed11.7 mph21.9 mph (9:51 am)
Wind Gust28.8 mph (9:51 am)
Weather ElementAverage
Visibility10 mi
Wind DirectionW (273 °)

Weather ElementTotal
Precipitation---
Heating Degree Days21.1 (Base 65)
Averaged from 23 records on January 10, 2013
WEATHER CONDITIONS BREAKOUT
WIND DIRECTION BREAKOUT
WEATHER BY HOUR - JANUARY 10, 2013
[ °C ]   °F
Local TimeTemperatureDewpointHumidityBarometerVisibilityWind DirectionWind SpeedGust SpeedPrecipitationEventsConditions
1:51 AM42.1 °F30.0 °F62 %30.30 in10.0 miWest (260°)10.4 mphClear
2:51 AM42.1 °F28.9 °F60 %30.32 in10.0 miWest (260°)8.1 mphClear
3:51 AM43.0 °F26.1 °F51 %30.35 in10.0 miWest (280°)11.5 mphClear
4:51 AM41.0 °F26.1 °F55 %30.36 in10.0 miWNW (300°)15.0 mph25.3 mphClear
5:51 AM43.0 °F23.0 °F45 %30.39 in10.0 miWNW (300°)12.7 mph23.0 mphClear
6:51 AM41.0 °F23.0 °F49 %30.41 in10.0 miWNW (300°)10.4 mph16.1 mphPartly Cloudy
7:51 AM42.1 °F23.0 °F47 %30.46 in10.0 miNW (310°)16.1 mph23.0 mphScattered Clouds
8:51 AM44.1 °F23.0 °F43 %30.48 in10.0 miNW (320°)15.0 mph26.5 mphScattered Clouds
9:51 AM45.0 °F23.0 °F42 %30.50 in10.0 miNNW (330°)21.9 mph28.8 mphScattered Clouds
10:51 AM46.0 °F21.9 °F39 %30.49 in10.0 miNNW (330°)21.9 mphMostly Cloudy
11:51 AM46.9 °F21.9 °F37 %30.46 in10.0 miNW (320°)16.1 mphMostly Cloudy
12:51 PM48.0 °F19.9 °F33 %30.46 in10.0 miNW (310°)15.0 mph23.0 mphMostly Cloudy
1:51 PM48.9 °F19.9 °F32 %30.47 in10.0 miNW (310°)15.0 mphMostly Cloudy
2:51 PM48.0 °F19.9 °F33 %30.48 in10.0 miWNW (300°)11.5 mphMostly Cloudy
3:51 PM48.0 °F19.9 °F33 %30.49 in10.0 miNW (320°)12.7 mphScattered Clouds
4:51 PM45.0 °F19.9 °F37 %30.51 in10.0 miNW (320°)12.7 mphScattered Clouds
5:51 PM44.1 °F19.9 °F38 %30.51 in10.0 miNW (320°)6.9 mphScattered Clouds
6:51 PM44.1 °F21.0 °F40 %30.53 in10.0 miNW (310°)6.9 mphMostly Cloudy
7:51 PM42.1 °F21.0 °F43 %30.54 in10.0 miNW (320°)5.8 mphMostly Cloudy
8:51 PM41.0 °F21.9 °F47 %30.54 in10.0 miNorth (350°)6.9 mphMostly Cloudy
9:51 PM39.9 °F23.0 °F51 %30.54 in10.0 miNNE (30°)5.8 mphMostly Cloudy
10:51 PM39.0 °F21.9 °F50 %30.55 in10.0 miNE (50°)5.8 mphMostly Cloudy
11:51 PM39.0 °F21.9 °F50 %30.56 in10.0 miNNE (30°)4.6 mphMostly Cloudy
Hourly data recorded from KJFK, located miles away from Brooklyn, New York







STORIES FROM OUR PARTNERS